BADR-B

Last updated on Wed Apr 06 2016 09:37:55 GMT+0000 (Coordinated Universal Time)

1 27003U 01056C 16097.01842983 -.00000028 00000-0 16274-4 0 9997 2 27003 99.2837 245.0319 0020690 33.6732 326.5725 13.70215159716230

Satellite not in orbit

BADR-B